| time (UTC) | temp F | wind direction | speed knots | gust knots | rain 1hr in | rain 24hr in | rain mn in | humidity % | barometer mb |
| 20260507115005 | 48 | 75 | 2.6 | 5.2 | 0.00 | 0.00 | 0.00 | 62 | 1022.1 |
| 20260507114505 | 48 | 75 | 2.6 | 5.2 | 0.00 | 0.00 | 0.00 | 62 | 1022.2 |
| 20260507113505 | 49 | 82 | 2.6 | 4.3 | 0.00 | 0.00 | 0.00 | 61 | 1022.1 |
| 20260507113006 | 49 | 75 | 2.6 | 4.3 | 0.00 | 0.00 | 0.00 | 61 | 1022.1 |
| 20260507112505 | 49 | 83 | 2.6 | 4.3 | 0.00 | 0.00 | 0.00 | 61 | 1022.2 |
| 20260507112006 | 49 | 72 | 1.7 | 2.6 | 0.00 | 0.00 | 0.00 | 61 | 1022.2 |
| 20260507111507 | 50 | 72 | 2.6 | 4.3 | 0.00 | 0.00 | 0.00 | 60 | 1022.2 |
| 20260507111006 | 50 | 72 | 2.6 | 5.2 | 0.00 | 0.00 | 0.00 | 60 | 1022.2 |
| 20260507110505 | 50 | 58 | 2.6 | 5.2 | 0.00 | 0.00 | 0.00 | 60 | 1022.3 |
| 20260507110005 | 50 | 76 | 2.6 | 6.1 | 0.00 | 0.00 | 0.00 | 59 | 1022.1 |
| 20260507105505 | 51 | 75 | 4.3 | 7.8 | 0.00 | 0.00 | 0.00 | 59 | 1022.2 |
| 20260507105005 | 51 | 74 | 4.3 | 7.8 | 0.00 | 0.00 | 0.00 | 59 | 1022.2 |
| 20260507104506 | 51 | 75 | 4.3 | 8.7 | 0.00 | 0.00 | 0.00 | 59 | 1022.1 |
| 20260507104005 | 51 | 75 | 4.3 | 8.7 | 0.00 | 0.00 | 0.00 | 59 | 1022.2 |
| 20260507103506 | 52 | 76 | 4.3 | 8.7 | 0.00 | 0.00 | 0.00 | 59 | 1022.2 |
| 20260507103005 | 52 | 70 | 4.3 | 10.4 | 0.00 | 0.00 | 0.00 | 59 | 1022.1 |
| 20260507102505 | 52 | 72 | 5.2 | 10.4 | 0.00 | 0.00 | 0.00 | 59 | 1022.2 |
| 20260507102007 | 52 | 75 | 6.1 | 11.3 | 0.00 | 0.00 | 0.00 | 59 | 1022.1 |
| 20260507101005 | 52 | 69 | 7.0 | 13.0 | 0.00 | 0.00 | 0.00 | 59 | 1022.1 |
| 20260507100505 | 52 | 58 | 7.0 | 12.2 | 0.00 | 0.00 | 0.00 | 59 | 1022.2 |
| 20260507095005 | 52 | 62 | 8.7 | 17.4 | 0.00 | 0.00 | 0.00 | 60 | 1022.0 |
| 20260507094505 | 52 | 51 | 7.0 | 17.4 | 0.00 | 0.00 | 0.00 | 61 | 1021.9 |
| 20260507094006 | 52 | 51 | 7.0 | 13.9 | 0.00 | 0.00 | 0.00 | 63 | 1022.0 |
| 20260507093505 | 52 | 66 | 6.1 | 11.3 | 0.00 | 0.00 | 0.00 | 64 | 1021.9 |
| 20260507093006 | 51 | 60 | 5.2 | 11.3 | 0.00 | 0.00 | 0.00 | 66 | 1022.0 |
| 20260507092505 | 51 | 59 | 4.3 | 10.4 | 0.00 | 0.00 | 0.00 | 68 | 1021.9 |
| 20260507091505 | 51 | 52 | 5.2 | 10.4 | 0.00 | 0.00 | 0.00 | 69 | 1021.8 |
| 20260507091005 | 51 | 61 | 5.2 | 10.4 | 0.00 | 0.00 | 0.00 | 69 | 1021.7 |
| 20260507090505 | 51 | 49 | 5.2 | 10.4 | 0.00 | 0.00 | 0.00 | 70 | 1021.8 |
| 20260507090006 | 51 | 53 | 4.3 | 8.7 | 0.00 | 0.00 | 0.00 | 70 | 1021.8 |
| 20260507085505 | 51 | 50 | 2.6 | 7.0 | 0.00 | 0.00 | 0.00 | 70 | 1021.7 |
| 20260507084505 | 51 | 42 | 1.7 | 5.2 | 0.00 | 0.00 | 0.00 | 70 | 1021.6 |
| 20260507084005 | 51 | 78 | 1.7 | 4.3 | 0.00 | 0.00 | 0.00 | 70 | 1021.6 |
| 20260507083505 | 52 | 71 | 2.6 | 4.3 | 0.00 | 0.00 | 0.00 | 70 | 1021.5 |
| 20260507082005 | 52 | 68 | 2.6 | 5.2 | 0.00 | 0.00 | 0.00 | 69 | 1021.5 |
| 20260507081505 | 52 | 43 | 2.6 | 5.2 | 0.00 | 0.00 | 0.00 | 70 | 1021.6 |
| 20260507081005 | 52 | 38 | 2.6 | 5.2 | 0.00 | 0.00 | 0.00 | 70 | 1021.5 |
| 20260507080505 | 52 | 41 | 1.7 | 4.3 | 0.00 | 0.00 | 0.00 | 70 | 1021.6 |
| 20260507080005 | 52 | 59 | 1.7 | 2.6 | 0.00 | 0.00 | 0.00 | 70 | 1021.5 |
| 20260507075505 | 52 | 54 | 2.6 | 4.3 | 0.00 | 0.00 | 0.00 | 70 | 1021.5 |
| 20260507075005 | 53 | 67 | 2.6 | 5.2 | 0.00 | 0.00 | 0.00 | 69 | 1021.4 |
| 20260507074505 | 53 | 72 | 2.6 | 5.2 | 0.00 | 0.00 | 0.00 | 69 | 1021.2 |
| 20260507074005 | 53 | 77 | 2.6 | 5.2 | 0.00 | 0.00 | 0.00 | 68 | 1021.2 |
| 20260507073504 | 53 | 64 | 2.6 | 5.2 | 0.00 | 0.00 | 0.00 | 67 | 1021.1 |
| 20260507073005 | 53 | 62 | 1.7 | 2.6 | 0.00 | 0.00 | 0.00 | 66 | 1021.1 |
| 20260507072505 | 53 | 58 | 2.6 | 6.1 | 0.00 | 0.00 | 0.00 | 66 | 1021.0 |
| 20260507072005 | 53 | 82 | 2.6 | 6.1 | 0.00 | 0.00 | 0.00 | 66 | 1021.0 |
| 20260507071505 | 54 | 67 | 2.6 | 6.1 | 0.00 | 0.00 | 0.00 | 65 | 1021.1 |
| 20260507070505 | 54 | 77 | 1.7 | 2.6 | 0.00 | 0.00 | 0.00 | 65 | 1021.1 |
| 20260507070009 | 55 | 77 | 2.6 | 4.3 | 0.00 | 0.00 | 0.00 | 65 | 1021.0 |
| 20260507065505 | 55 | 77 | 2.6 | 4.3 | 0.00 | 0.00 | 0.00 | 65 | 1020.9 |
| 20260507065004 | 55 | 81 | 2.6 | 4.3 | 0.00 | 0.00 | 0.00 | 65 | 1020.9 |
| 20260507064505 | 55 | 75 | 2.6 | 5.2 | 0.00 | 0.00 | 0.00 | 65 | 1020.8 |
| 20260507064005 | 55 | 94 | 2.6 | 6.1 | 0.00 | 0.00 | 0.00 | 64 | 1020.6 |
| 20260507063505 | 56 | 89 | 2.6 | 6.1 | 0.00 | 0.00 | 0.00 | 63 | 1020.7 |
| 20260507063005 | 56 | 98 | 2.6 | 6.1 | 0.00 | 0.00 | 0.00 | 62 | 1020.6 |
| 20260507062505 | 56 | 94 | 2.6 | 6.1 | 0.00 | 0.00 | 0.00 | 61 | 1020.7 |
| 20260507062005 | 56 | 88 | 4.3 | 6.1 | 0.00 | 0.00 | 0.00 | 61 | 1020.4 |
| 20260507061505 | 57 | 75 | 4.3 | 6.1 | 0.00 | 0.00 | 0.00 | 61 | 1020.4 |
| 20260507061004 | 57 | 77 | 4.3 | 10.4 | 0.00 | 0.00 | 0.00 | 61 | 1020.3 |
| 20260507055505 | 58 | 85 | 6.1 | 10.4 | 0.00 | 0.00 | 0.00 | 61 | 1019.9 |
| 20260507054005 | 58 | 102 | 6.1 | 13.0 | 0.00 | 0.00 | 0.00 | 60 | 1019.3 |
| 20260507053505 | 58 | 96 | 6.1 | 13.0 | 0.00 | 0.00 | 0.00 | 59 | 1019.2 |
| 20260507053005 | 58 | 101 | 7.0 | 11.3 | 0.00 | 0.00 | 0.00 | 59 | 1019.2 |
| 20260507052505 | 58 | 99 | 7.8 | 11.3 | 0.00 | 0.00 | 0.00 | 58 | 1019.2 |
| 20260507052005 | 59 | 104 | 7.8 | 11.3 | 0.00 | 0.00 | 0.00 | 58 | 1019.1 |
| 20260507051505 | 59 | 104 | 7.0 | 12.2 | 0.00 | 0.00 | 0.00 | 57 | 1018.9 |
| 20260507051005 | 59 | 103 | 6.1 | 12.2 | 0.00 | 0.00 | 0.00 | 56 | 1019.0 |
| 20260507050504 | 59 | 98 | 5.2 | 10.4 | 0.00 | 0.00 | 0.00 | 55 | 1018.7 |
| 20260507050006 | 59 | 104 | 5.2 | 8.7 | 0.00 | 0.00 | 0.00 | 54 | 1018.6 |
| 20260507045504 | 60 | 103 | 5.2 | 8.7 | 0.00 | 0.00 | 0.00 | 54 | 1018.7 |
| 20260507045005 | 60 | 103 | 7.0 | 13.9 | 0.00 | 0.00 | 0.00 | 54 | 1018.7 |
| 20260507044505 | 60 | 87 | 7.8 | 17.4 | 0.00 | 0.00 | 0.00 | 54 | 1018.4 |
| 20260507044005 | 60 | 107 | 7.8 | 17.4 | 0.00 | 0.00 | 0.00 | 53 | 1018.3 |
| 20260507043505 | 60 | 109 | 8.7 | 13.0 | 0.00 | 0.00 | 0.00 | 52 | 1018.3 |
| 20260507043005 | 60 | 104 | 8.7 | 12.2 | 0.00 | 0.00 | 0.00 | 52 | 1018.3 |
| 20260507042504 | 60 | 96 | 7.0 | 12.2 | 0.00 | 0.00 | 0.00 | 52 | 1018.1 |
| 20260507042004 | 60 | 93 | 7.0 | 13.0 | 0.00 | 0.00 | 0.00 | 51 | 1018.0 |
| 20260507041005 | 61 | 104 | 7.0 | 11.3 | 0.00 | 0.00 | 0.00 | 51 | 1017.8 |
| 20260507040504 | 61 | 100 | 7.8 | 13.0 | 0.00 | 0.00 | 0.00 | 51 | 1017.8 |
| 20260507040005 | 61 | 103 | 8.7 | 13.0 | 0.00 | 0.00 | 0.00 | 50 | 1017.9 |
| 20260507035505 | 61 | 90 | 7.8 | 13.0 | 0.00 | 0.00 | 0.00 | 50 | 1017.8 |
| 20260507034505 | 62 | 94 | 7.8 | 13.0 | 0.00 | 0.00 | 0.00 | 50 | 1017.5 |
| 20260507034004 | 62 | 93 | 7.8 | 14.8 | 0.00 | 0.00 | 0.00 | 49 | 1017.4 |
| 20260507033504 | 62 | 96 | 7.8 | 14.8 | 0.00 | 0.00 | 0.00 | 49 | 1017.4 |
| 20260507033004 | 62 | 101 | 8.7 | 13.9 | 0.00 | 0.00 | 0.00 | 49 | 1017.2 |
| 20260507032505 | 63 | 101 | 8.7 | 17.4 | 0.00 | 0.00 | 0.00 | 48 | 1017.2 |
| 20260507032005 | 63 | 103 | 7.8 | 17.4 | 0.00 | 0.00 | 0.00 | 48 | 1017.2 |
| 20260507031505 | 63 | 98 | 7.8 | 17.4 | 0.00 | 0.00 | 0.00 | 48 | 1017.1 |
| 20260507030505 | 63 | 103 | 8.7 | 13.9 | 0.00 | 0.00 | 0.00 | 47 | 1017.0 |
| 20260507030004 | 64 | 101 | 7.8 | 13.0 | 0.00 | 0.00 | 0.00 | 46 | 1017.1 |
| 20260507025504 | 64 | 98 | 7.8 | 13.0 | 0.00 | 0.00 | 0.00 | 46 | 1017.0 |
| 20260507025004 | 64 | 100 | 7.8 | 13.0 | 0.00 | 0.00 | 0.00 | 46 | 1017.0 |
| 20260507024504 | 64 | 99 | 7.8 | 13.0 | 0.00 | 0.00 | 0.00 | 46 | 1016.8 |
| 20260507023504 | 65 | 98 | 8.7 | 13.0 | 0.00 | 0.00 | 0.00 | 45 | 1016.7 |
| 20260507023005 | 65 | 95 | 8.7 | 13.0 | 0.00 | 0.00 | 0.00 | 44 | 1016.6 |
| 20260507022505 | 65 | 99 | 10.4 | 15.6 | 0.00 | 0.00 | 0.00 | 44 | 1016.4 |
| 20260507022004 | 65 | 97 | 10.4 | 15.6 | 0.00 | 0.00 | 0.00 | 44 | 1016.3 |
| 20260507021004 | 66 | 104 | 10.4 | 15.6 | 0.00 | 0.00 | 0.00 | 43 | 1016.0 |
| 20260507020504 | 66 | 101 | 10.4 | 14.8 | 0.00 | 0.00 | 0.00 | 43 | 1016.1 |
| 20260507020004 | 67 | 91 | 10.4 | 13.9 | 0.00 | 0.00 | 0.00 | 43 | 1015.9 |
| 20260507015504 | 67 | 99 | 10.4 | 19.1 | 0.00 | 0.00 | 0.00 | 42 | 1015.8 |
| 20260507015005 | 67 | 101 | 10.4 | 19.1 | 0.00 | 0.00 | 0.00 | 41 | 1015.6 |
| 20260507014504 | 67 | 101 | 7.8 | 12.2 | 0.00 | 0.00 | 0.00 | 41 | 1015.5 |
| 20260507014004 | 68 | 100 | 7.0 | 12.2 | 0.00 | 0.00 | 0.00 | 41 | 1015.3 |
| 20260507013005 | 68 | 103 | 10.4 | 13.9 | 0.00 | 0.00 | 0.00 | 40 | 1015.1 |
| 20260507012504 | 69 | 96 | 10.4 | 13.9 | 0.00 | 0.00 | 0.00 | 39 | 1015.0 |
| 20260507012004 | 69 | 104 | 10.4 | 13.9 | 0.00 | 0.00 | 0.00 | 39 | 1014.9 |
| 20260507011505 | 69 | 99 | 10.4 | 15.6 | 0.00 | 0.00 | 0.00 | 38 | 1014.8 |
| 20260507010504 | 70 | 98 | 10.4 | 17.4 | 0.00 | 0.00 | 0.00 | 37 | 1014.6 |
| 20260507010005 | 71 | 107 | 10.4 | 17.4 | 0.00 | 0.00 | 0.00 | 37 | 1014.5 |
| 20260507005504 | 71 | 89 | 10.4 | 17.4 | 0.00 | 0.00 | 0.00 | 36 | 1014.5 |
| 20260507005004 | 71 | 99 | 10.4 | 15.6 | 0.00 | 0.00 | 0.00 | 36 | 1014.3 |
| 20260507004504 | 72 | 89 | 10.4 | 15.6 | 0.00 | 0.00 | 0.00 | 35 | 1014.2 |
| 20260507003505 | 72 | 100 | 8.7 | 14.8 | 0.00 | 0.00 | 0.00 | 35 | 1014.2 |
| 20260507003005 | 73 | 103 | 9.6 | 14.8 | 0.00 | 0.00 | 0.00 | 34 | 1014.1 |
| 20260507002504 | 73 | 110 | 10.4 | 14.8 | 0.00 | 0.00 | 0.00 | 34 | 1014.1 |
| 20260507002005 | 73 | 109 | 8.7 | 14.8 | 0.00 | 0.00 | 0.00 | 34 | 1014.0 |
| 20260507001504 | 73 | 95 | 8.7 | 14.8 | 0.00 | 0.00 | 0.00 | 34 | 1013.9 |
| 20260507001004 | 74 | 80 | 8.7 | 13.9 | 0.00 | 0.00 | 0.00 | 33 | 1014.0 |
| 20260507000005 | 74 | 110 | 8.7 | 15.6 | 0.00 | 0.00 | 0.00 | 33 | 1014.0 |
| 20260506235504 | 74 | 95 | 10.4 | 17.4 | 0.00 | 0.00 | 0.00 | 33 | 1014.0 |
| 20260506235004 | 74 | 117 | 10.4 | 17.4 | 0.00 | 0.00 | 0.00 | 33 | 1014.0 |
| 20260506234004 | 75 | 108 | 8.7 | 13.9 | 0.00 | 0.00 | 0.00 | 33 | 1014.0 |
| 20260506233004 | 75 | 131 | 8.7 | 14.8 | 0.00 | 0.00 | 0.00 | 33 | 1014.0 |
| 20260506232504 | 75 | 93 | 7.8 | 14.8 | 0.00 | 0.00 | 0.00 | 33 | 1013.9 |
| 20260506232004 | 75 | 123 | 7.8 | 14.8 | 0.00 | 0.00 | 0.00 | 33 | 1014.0 |
| 20260506231505 | 75 | 106 | 7.8 | 13.0 | 0.00 | 0.00 | 0.00 | 33 | 1014.0 |
| 20260506230504 | 75 | 103 | 4.3 | 13.0 | 0.00 | 0.00 | 0.00 | 33 | 1014.0 |
| 20260506230004 | 75 | 121 | 6.1 | 13.0 | 0.00 | 0.00 | 0.00 | 32 | 1013.9 |
| 20260506225504 | 76 | 116 | 7.0 | 13.9 | 0.00 | 0.00 | 0.00 | 33 | 1014.0 |
| 20260506225004 | 76 | 113 | 6.1 | 13.9 | 0.00 | 0.00 | 0.00 | 33 | 1014.0 |
| 20260506224504 | 76 | 123 | 7.0 | 11.3 | 0.00 | 0.00 | 0.00 | 33 | 1013.9 |
| 20260506224004 | 75 | 97 | 4.3 | 11.3 | 0.00 | 0.00 | 0.00 | 33 | 1013.9 |
| 20260506223005 | 75 | 131 | 6.1 | 12.2 | 0.00 | 0.00 | 0.00 | 33 | 1013.9 |
| 20260506222007 | 75 | 131 | 6.1 | 13.0 | 0.00 | 0.00 | 0.00 | 34 | 1013.9 |
| 20260506221504 | 75 | 93 | 7.0 | 13.0 | 0.00 | 0.00 | 0.00 | 34 | 1013.8 |
| 20260506221004 | 75 | 144 | 6.1 | 11.3 | 0.00 | 0.00 | 0.00 | 33 | 1013.9 |
| 20260506220505 | 75 | 109 | 6.1 | 13.0 | 0.00 | 0.00 | 0.00 | 34 | 1014.1 |
| 20260506220005 | 75 | 166 | 7.8 | 13.0 | 0.00 | 0.00 | 0.00 | 34 | 1014.2 |
| 20260506215505 | 75 | 105 | 6.1 | 13.0 | 0.00 | 0.00 | 0.00 | 34 | 1014.2 |
| 20260506215005 | 75 | 112 | 6.1 | 11.3 | 0.00 | 0.00 | 0.00 | 35 | 1014.2 |
| 20260506214504 | 75 | 166 | 7.0 | 11.3 | 0.00 | 0.00 | 0.00 | 34 | 1014.2 |
| 20260506214004 | 75 | 124 | 6.1 | 11.3 | 0.00 | 0.00 | 0.00 | 34 | 1014.3 |
| 20260506213504 | 75 | 150 | 5.2 | 10.4 | 0.00 | 0.00 | 0.00 | 35 | 1014.3 |
| 20260506213005 | 75 | 75 | 6.1 | 11.3 | 0.00 | 0.00 | 0.00 | 34 | 1014.4 |
| 20260506212504 | 75 | 123 | 7.0 | 11.3 | 0.00 | 0.00 | 0.00 | 35 | 1014.5 |
| 20260506211505 | 75 | 130 | 4.3 | 10.4 | 0.00 | 0.00 | 0.00 | 35 | 1014.6 |
| 20260506211004 | 75 | 122 | 4.3 | 10.4 | 0.00 | 0.00 | 0.00 | 34 | 1014.7 |
| 20260506210504 | 75 | 56 | 5.2 | 11.3 | 0.00 | 0.00 | 0.00 | 35 | 1014.7 |
| 20260506210004 | 74 | 91 | 5.2 | 13.0 | 0.00 | 0.00 | 0.00 | 35 | 1014.9 |
| 20260506205005 | 74 | 83 | 6.1 | 11.3 | 0.00 | 0.00 | 0.00 | 36 | 1014.9 |
| 20260506204504 | 74 | 90 | 4.3 | 10.4 | 0.00 | 0.00 | 0.00 | 37 | 1014.9 |
| 20260506204004 | 73 | 120 | 4.3 | 10.4 | 0.00 | 0.00 | 0.00 | 37 | 1014.8 |
| 20260506203004 | 73 | 52 | 4.3 | 12.2 | 0.00 | 0.00 | 0.00 | 37 | 1015.0 |
| 20260506202504 | 73 | 55 | 6.1 | 11.3 | 0.00 | 0.00 | 0.00 | 37 | 1014.9 |
| 20260506201505 | 72 | 81 | 5.2 | 13.0 | 0.00 | 0.00 | 0.00 | 37 | 1015.0 |
| 20260506201004 | 72 | 32 | 5.2 | 12.2 | 0.00 | 0.00 | 0.00 | 38 | 1015.2 |
| 20260506200505 | 72 | 28 | 6.1 | 14.8 | 0.00 | 0.00 | 0.00 | 37 | 1015.1 |
| 20260506195504 | 72 | 99 | 6.1 | 12.2 | 0.00 | 0.00 | 0.00 | 38 | 1015.2 |
| 20260506195004 | 72 | 42 | 4.3 | 15.6 | 0.00 | 0.00 | 0.00 | 38 | 1015.2 |
| 20260506194504 | 71 | 73 | 4.3 | 15.6 | 0.00 | 0.00 | 0.00 | 40 | 1015.3 |
| 20260506193504 | 71 | 90 | 4.3 | 13.0 | 0.00 | 0.00 | 0.00 | 40 | 1015.3 |
| 20260506193005 | 70 | 108 | 5.2 | 10.4 | 0.00 | 0.00 | 0.00 | 41 | 1015.3 |
| 20260506192504 | 69 | 85 | 6.1 | 10.4 | 0.00 | 0.00 | 0.00 | 41 | 1015.4 |
| 20260506192004 | 69 | 83 | 5.2 | 11.3 | 0.00 | 0.00 | 0.00 | 41 | 1015.4 |
| 20260506191005 | 68 | 116 | 7.0 | 13.0 | 0.00 | 0.00 | 0.00 | 43 | 1015.3 |
| 20260506190505 | 68 | 156 | 5.2 | 13.0 | 0.00 | 0.00 | 0.00 | 42 | 1015.4 |
| 20260506190005 | 68 | 69 | 4.3 | 11.3 | 0.00 | 0.00 | 0.00 | 44 | 1015.4 |
| 20260506185504 | 67 | 141 | 5.2 | 10.4 | 0.00 | 0.00 | 0.00 | 44 | 1015.4 |
| 20260506185005 | 67 | 148 | 4.3 | 12.2 | 0.00 | 0.00 | 0.00 | 44 | 1015.4 |
| 20260506184004 | 67 | 112 | 2.6 | 8.7 | 0.00 | 0.00 | 0.00 | 44 | 1015.5 |
| 20260506183504 | 67 | 72 | 2.6 | 11.3 | 0.00 | 0.00 | 0.00 | 45 | 1015.5 |
| 20260506183005 | 66 | 354 | 4.3 | 11.3 | 0.00 | 0.00 | 0.00 | 45 | 1015.8 |
| 20260506182504 | 66 | 78 | 4.3 | 8.7 | 0.00 | 0.00 | 0.00 | 45 | 1015.9 |
| 20260506182005 | 65 | 66 | 4.3 | 8.7 | 0.00 | 0.00 | 0.00 | 47 | 1015.9 |
| 20260506181504 | 65 | 97 | 4.3 | 13.9 | 0.00 | 0.00 | 0.00 | 46 | 1015.9 |
| 20260506181004 | 65 | 15 | 4.3 | 13.9 | 0.00 | 0.00 | 0.00 | 47 | 1016.0 |
| 20260506180005 | 64 | 87 | 5.2 | 12.2 | 0.00 | 0.00 | 0.00 | 48 | 1016.2 |
| 20260506175504 | 64 | 82 | 5.2 | 12.2 | 0.00 | 0.00 | 0.00 | 48 | 1016.2 |
| 20260506175004 | 64 | 36 | 5.2 | 10.4 | 0.00 | 0.00 | 0.00 | 48 | 1016.3 |
| 20260506174005 | 63 | 95 | 6.1 | 11.3 | 0.00 | 0.00 | 0.00 | 49 | 1016.4 |
| 20260506173504 | 63 | 63 | 5.2 | 11.3 | 0.00 | 0.00 | 0.00 | 49 | 1016.3 |
| 20260506173005 | 63 | 81 | 5.2 | 10.4 | 0.00 | 0.00 | 0.00 | 49 | 1016.4 |
| 20260506172504 | 62 | 105 | 4.3 | 10.4 | 0.00 | 0.00 | 0.00 | 50 | 1016.5 |
| 20260506172004 | 62 | 112 | 5.2 | 11.3 | 0.00 | 0.00 | 0.00 | 51 | 1016.5 |
| 20260506171504 | 62 | 94 | 6.1 | 11.3 | 0.00 | 0.00 | 0.00 | 51 | 1016.7 |
| 20260506170504 | 61 | 95 | 6.1 | 11.3 | 0.00 | 0.00 | 0.00 | 53 | 1016.6 |
| 20260506170004 | 60 | 124 | 4.3 | 10.4 | 0.00 | 0.00 | 0.00 | 53 | 1016.6 |
| 20260506165503 | 60 | 72 | 5.2 | 14.8 | 0.00 | 0.00 | 0.00 | 53 | 1016.6 |
| 20260506165005 | 60 | 81 | 7.0 | 14.8 | 0.00 | 0.00 | 0.00 | 54 | 1016.7 |
| 20260506164504 | 59 | 91 | 6.1 | 14.8 | 0.00 | 0.00 | 0.00 | 56 | 1016.9 |
| 20260506163504 | 58 | 104 | 7.8 | 13.9 | 0.00 | 0.00 | 0.00 | 56 | 1016.9 |
| 20260506163004 | 58 | 49 | 6.1 | 14.8 | 0.00 | 0.00 | 0.00 | 57 | 1017.0 |
| 20260506162504 | 57 | 66 | 6.1 | 14.8 | 0.00 | 0.00 | 0.00 | 60 | 1017.1 |
| 20260506162004 | 56 | 52 | 7.8 | 13.9 | 0.00 | 0.00 | 0.00 | 59 | 1016.9 |
| 20260506161504 | 56 | 95 | 7.8 | 14.8 | 0.00 | 0.00 | 0.00 | 61 | 1016.9 |
| 20260506161004 | 55 | 80 | 6.1 | 14.8 | 0.00 | 0.00 | 0.00 | 61 | 1016.9 |
| 20260506160504 | 55 | 69 | 7.0 | 14.8 | 0.00 | 0.00 | 0.00 | 62 | 1017.0 |
| 20260506160004 | 55 | 87 | 7.8 | 14.8 | 0.00 | 0.00 | 0.00 | 63 | 1017.1 |
| 20260506155504 | 54 | 63 | 7.8 | 14.8 | 0.00 | 0.00 | 0.00 | 64 | 1017.0 |
| 20260506155004 | 54 | 71 | 8.7 | 15.6 | 0.00 | 0.00 | 0.00 | 65 | 1017.1 |
| 20260506154504 | 54 | 92 | 8.7 | 15.6 | 0.00 | 0.00 | 0.00 | 66 | 1016.9 |
| 20260506153504 | 53 | 91 | 7.8 | 13.0 | 0.00 | 0.00 | 0.00 | 68 | 1017.0 |
| 20260506152504 | 52 | 82 | 8.7 | 15.6 | 0.00 | 0.00 | 0.00 | 69 | 1016.8 |
| 20260506152004 | 51 | 81 | 8.7 | 15.6 | 0.00 | 0.00 | 0.00 | 70 | 1017.0 |
| 20260506151504 | 51 | 98 | 8.7 | 14.8 | 0.00 | 0.00 | 0.00 | 71 | 1017.1 |
| 20260506151004 | 51 | 90 | 7.8 | 13.9 | 0.00 | 0.00 | 0.00 | 71 | 1017.1 |
| 20260506150504 | 50 | 85 | 7.0 | 12.2 | 0.00 | 0.00 | 0.00 | 72 | 1016.9 |
| 20260506145504 | 50 | 89 | 6.1 | 10.4 | 0.00 | 0.00 | 0.00 | 74 | 1017.0 |
| 20260506145004 | 50 | 71 | 7.0 | 13.9 | 0.00 | 0.00 | 0.00 | 74 | 1016.8 |
| 20260506144504 | 50 | 82 | 8.7 | 13.9 | 0.00 | 0.00 | 0.00 | 74 | 1016.8 |
| 20260506144004 | 50 | 75 | 8.7 | 15.6 | 0.00 | 0.00 | 0.00 | 74 | 1016.9 |
| 20260506143504 | 50 | 76 | 7.0 | 15.6 | 0.00 | 0.00 | 0.00 | 74 | 1016.8 |
| 20260506143004 | 50 | 53 | 7.8 | 13.9 | 0.00 | 0.00 | 0.00 | 74 | 1016.7 |
| 20260506142504 | 50 | 48 | 7.8 | 13.0 | 0.00 | 0.00 | 0.00 | 75 | 1016.8 |
| 20260506142004 | 50 | 77 | 7.8 | 13.0 | 0.00 | 0.00 | 0.00 | 75 | 1016.8 |
| 20260506141504 | 50 | 81 | 7.8 | 13.0 | 0.00 | 0.00 | 0.00 | 75 | 1016.6 |
| 20260506141004 | 49 | 79 | 7.8 | 13.0 | 0.00 | 0.00 | 0.00 | 75 | 1016.5 |
| 20260506140504 | 49 | 71 | 7.8 | 12.2 | 0.00 | 0.00 | 0.00 | 75 | 1016.4 |
| 20260506140004 | 49 | 85 | 8.7 | 14.8 | 0.00 | 0.00 | 0.00 | 75 | 1016.3 |
| 20260506135503 | 49 | 77 | 8.7 | 14.8 | 0.00 | 0.00 | 0.00 | 75 | 1016.3 |
| 20260506134506 | 49 | 75 | 8.7 | 13.9 | 0.00 | 0.00 | 0.00 | 75 | 1016.3 |
| 20260506133505 | 49 | 49 | 6.1 | 13.0 | 0.00 | 0.00 | 0.00 | 75 | 1015.8 |
| 20260506133006 | 49 | 51 | 6.1 | 12.2 | 0.00 | 0.00 | 0.00 | 75 | 1015.7 |
| 20260506132506 | 49 | 59 | 7.0 | 11.3 | 0.00 | 0.00 | 0.00 | 75 | 1015.6 |
| 20260506132007 | 49 | 47 | 7.0 | 11.3 | 0.00 | 0.00 | 0.00 | 75 | 1015.5 |
| 20260506131506 | 49 | 50 | 7.8 | 13.0 | 0.00 | 0.00 | 0.00 | 76 | 1015.4 |
| 20260506131006 | 49 | 44 | 8.7 | 14.8 | 0.00 | 0.00 | 0.00 | 76 | 1015.3 |
| 20260506130506 | 49 | 55 | 7.0 | 14.8 | 0.00 | 0.00 | 0.00 | 76 | 1015.2 |
| 20260506130006 | 48 | 50 | 6.1 | 13.0 | 0.00 | 0.00 | 0.00 | 76 | 1015.2 |
| 20260506125506 | 48 | 60 | 6.1 | 12.2 | 0.00 | 0.00 | 0.00 | 76 | 1015.1 |
| 20260506125005 | 48 | 53 | 8.7 | 13.0 | 0.00 | 0.00 | 0.00 | 76 | 1014.9 |
| 20260506124505 | 48 | 60 | 7.8 | 14.8 | 0.00 | 0.00 | 0.00 | 77 | 1014.7 |
| 20260506124005 | 48 | 56 | 7.8 | 14.8 | 0.00 | 0.00 | 0.00 | 77 | 1014.8 |
| 20260506123006 | 48 | 50 | 7.8 | 13.9 | 0.00 | 0.00 | 0.00 | 77 | 1014.3 |
| 20260506122505 | 48 | 50 | 7.8 | 15.6 | 0.00 | 0.00 | 0.00 | 77 | 1014.2 |
| 20260506121505 | 48 | 61 | 7.0 | 14.8 | 0.00 | 0.00 | 0.00 | 77 | 1014.1 |
| 20260506121006 | 48 | 48 | 7.0 | 13.9 | 0.00 | 0.00 | 0.00 | 77 | 1014.2 |
| 20260506120506 | 48 | 53 | 7.0 | 13.9 | 0.00 | 0.00 | 0.00 | 77 | 1014.1 |
| 20260506120005 | 48 | 52 | 7.8 | 13.9 | 0.00 | 0.00 | 0.00 | 77 | 1014.0 |
| 20260506115505 | 48 | 72 | 7.8 | 13.9 | 0.00 | 0.00 | 0.00 | 77 | 1014.0 |